Location: Newark
(45.5000°N, 11.4167°E)
Time: 09:38:17
(UTC+00:00)

Explorer 11/Cluster Stage 4 - Pass Details

Date: 19 August 2019
Orbit: 467 x 1259 km, 28.8° (Epoch: 20 October)

Event Time Altitude Azimuth Distance (km) Brightness Sun altitude
Rises 12:07:41 0° 230° (SW) 4,156 10.7 55.6°
Reaches altitude 10° 12:11:40 10° 214° (SSW) 3,118 10.4 55.3°
Maximum altitude 12:16:40 19° 174° (S) 2,401 9.9 55.0°
Drops below altitude 10° 12:21:15 10° 133° (SE) 2,812 9.7 54.6°
Sets 12:24:36 0° 115° (ESE) 3,614 10.0 54.3°
